"Pseudo-MPEC" for P11bgzZ

Created 2021 Jan 21 12:07:15 UT using Find_Orb

Click here for an explanation of pseudo-MPECs

 
 Astrometry: 
     P11bgzZ  C2020 12 25u%+YAstrometryBs);M/o.8pt+WR^ec\(w,gnC]9HBMDoV9ve/#sF51
     P11bgzZ  C2020 12 25!MG,^yjJ=redacted;R:gsb+EEALb6(3Gejtf=As!t=Kkx$_ewHpF51
     P11bgzZ  C2020 12 25nGo2iuO%WQl$\x\ys/!H'm%*Sj\U:*dk_kK=vqulTNO-G^.Iei=DF51
     P11bgzZ  C2020 12 25sJ4/%)9'G0M,UR#,#yxWM'eNfMR+IPjsSR!G3H1:/@lfLpe%'l,FF51
     P11bgzZ ^C2020 12 26uLNM2jvb4IZBclick!6i48TOGtu4GESL'2Mu_!qFR34!GVhere7y695
     P11bgzZ ^C2020 12 26jPSsw(oeOfornsUusAIHZ$J+$explanationr9W@I31I#aVQ9^F$695
     P11bgzZ ^C2020 12 26g:QvjJ9Lxqv*vRicv8v.;ToL+b0+gRyNiCF\oETF)*R_s\e8D'Fm695

Station data:
(695) Kitt Peak  (N31.958398 W111.594670)  US/Arizona.
(F51) Pan-STARRS 1, Haleakala  (N20.707235 W156.255910)  US/Hawaii.
   Observers N. Primak, A. Schultz, S. Watters, J. Thiel, T. Goggia. Measurer
   PS1 Science Consortium. 1.8-m Ritchey-Chrétien + CCD.

Orbital elements:  P11bgzZ
   Perihelion 2020 Sep 7.268724 +/- 115.742 TT =  6:26:57 (JD 2459099.768724)
Epoch 2020 Dec 26.0 TT = JDT 2459209.5   Earth MOID: 0.4885   Ma: 0.0540
M  44.96884726 +/- 53.797892        (J2000 ecliptic)          AutoNEOCP
n   0.40980884 +/- 0.242211         Peri.  316.66741 +/- 111.58019
a   1.79507183 +/- 0.707287         Node    83.81047 +/- 8.9551107
e   0.2045883 +/- 0.248847          Incl.   24.21178 +/- 16.300912
P   2.41/878.44d           H 21.3   G  0.15   U 11.8  SR
q 1.42782113 +/- 0.530748    Q 2.16232253 +/- 11.0826
From 7 observations 2020 Dec. 25-26 (21.5 hr); mean residual 0".18
Residuals in arcseconds: 
201225 F51  .31-  .24-    201225 F51  .25+  .20+    201226 695  .14+  .11+    
201225 F51  .08-  .18-    201226 695  .15-  .15-    
201225 F51  .16+  .23+    201226 695  .00   .02+    

Ephemerides (geocentric):
Date (UTC) HH   RA              Dec         delta   r     elong  mag " sig PA
---- -- -- --  -------------   -----------  ------ ------ -----  --- ---- ---
2021 01 21 12  07 41 14.958   +53 12 30.22  .73861 1.6491 146.0 22.7 180'  55
2021 01 21 13  07 41 10.441   +53 13 08.90  .73885 1.6492 146.0 22.7 181'  55
2021 01 21 14  07 41 05.926   +53 13 47.47  .73910 1.6493 146.0 22.7 181'  54
2021 01 21 15  07 41 01.414   +53 14 25.94  .73934 1.6495 145.9 22.7 182'  54
2021 01 21 16  07 40 56.905   +53 15 04.31  .73959 1.6496 145.9 22.7 183'  54
2021 01 21 17  07 40 52.398   +53 15 42.59  .73983 1.6497 145.9 22.7 183'  54
2021 01 21 18  07 40 47.894   +53 16 20.76  .74008 1.6498 145.9 22.7 184'  54
2021 01 21 19  07 40 43.392   +53 16 58.84  .74032 1.6499 145.8 22.7 184'  54
2021 01 21 20  07 40 38.894   +53 17 36.82  .74057 1.6500 145.8 22.7 185'  54
2021 01 21 21  07 40 34.398   +53 18 14.70  .74081 1.6501 145.8 22.7 185'  54
2021 01 21 22  07 40 29.904   +53 18 52.48  .74106 1.6502 145.7 22.7 186'  54
2021 01 21 23  07 40 25.414   +53 19 30.16  .74131 1.6503 145.7 22.7 186'  54
2021 01 22 00  07 40 20.926   +53 20 07.74  .74155 1.6504 145.7 22.7 187'  54
2021 01 22 01  07 40 16.441   +53 20 45.22  .74180 1.6505 145.7 22.7 188'  54
2021 01 22 02  07 40 11.959   +53 21 22.61  .74205 1.6507 145.6 22.7 188'  54
2021 01 22 03  07 40 07.479   +53 21 59.89  .74230 1.6508 145.6 22.7 189'  54
2021 01 22 04  07 40 03.003   +53 22 37.08  .74255 1.6509 145.6 22.7 189'  54
2021 01 22 05  07 39 58.529   +53 23 14.17  .74280 1.6510 145.5 22.7 190'  54
2021 01 22 06  07 39 54.059   +53 23 51.16  .74304 1.6511 145.5 22.7 190'  54
2021 01 22 07  07 39 49.591   +53 24 28.05  .74329 1.6512 145.5 22.7 191'  54
2021 01 22 08  07 39 45.126   +53 25 04.85  .74354 1.6513 145.4 22.7 192'  54
2021 01 22 09  07 39 40.664   +53 25 41.54  .74379 1.6514 145.4 22.7 192'  54
2021 01 22 10  07 39 36.205   +53 26 18.14  .74404 1.6515 145.4 22.7 193'  53
2021 01 22 11  07 39 31.750   +53 26 54.64  .74429 1.6516 145.4 22.7 193'  53
2021 01 22 12  07 39 27.297   +53 27 31.04  .74455 1.6518 145.3 22.7 194'  53
2021 01 22 13  07 39 22.847   +53 28 07.34  .74480 1.6519 145.3 22.7 194'  53
2021 01 22 14  07 39 18.400   +53 28 43.55  .74505 1.6520 145.3 22.7 195'  53
2021 01 22 15  07 39 13.956   +53 29 19.66  .74530 1.6521 145.2 22.7 196'  53
2021 01 22 16  07 39 09.516   +53 29 55.66  .74555 1.6522 145.2 22.7 196'  53
2021 01 22 17  07 39 05.078   +53 30 31.58  .74581 1.6523 145.2 22.7 197'  53
2021 01 22 18  07 39 00.644   +53 31 07.39  .74606 1.6524 145.2 22.7 197'  53
2021 01 22 19  07 38 56.213   +53 31 43.11  .74631 1.6525 145.1 22.7 198'  53
2021 01 22 20  07 38 51.785   +53 32 18.73  .74657 1.6526 145.1 22.7 198'  53
2021 01 22 21  07 38 47.360   +53 32 54.25  .74682 1.6527 145.1 22.7 199'  53
2021 01 22 22  07 38 42.938   +53 33 29.67  .74707 1.6528 145.0 22.7 200'  53
2021 01 22 23  07 38 38.520   +53 34 05.00  .74733 1.6530 145.0 22.7 200'  53
2021 01 23 00  07 38 34.105   +53 34 40.23  .74758 1.6531 145.0 22.8 201'  53
2021 01 23 01  07 38 29.693   +53 35 15.36  .74784 1.6532 144.9 22.8 201'  53
2021 01 23 02  07 38 25.285   +53 35 50.40  .74809 1.6533 144.9 22.8 202'  53
2021 01 23 03  07 38 20.879   +53 36 25.34  .74835 1.6534 144.9 22.8 203'  53
2021 01 23 04  07 38 16.477   +53 37 00.18  .74860 1.6535 144.9 22.8 203'  53
2021 01 23 05  07 38 12.079   +53 37 34.92  .74886 1.6536 144.8 22.8 204'  53
2021 01 23 06  07 38 07.684   +53 38 09.57  .74912 1.6537 144.8 22.8 204'  52
2021 01 23 07  07 38 03.292   +53 38 44.12  .74937 1.6538 144.8 22.8 205'  52
2021 01 23 08  07 37 58.903   +53 39 18.57  .74963 1.6539 144.7 22.8 205'  52
2021 01 23 09  07 37 54.519   +53 39 52.93  .74989 1.6541 144.7 22.8 206'  52
2021 01 23 10  07 37 50.137   +53 40 27.19  .75015 1.6542 144.7 22.8 207'  52
2021 01 23 11  07 37 45.759   +53 41 01.36  .75040 1.6543 144.6 22.8 207'  52